SCP
-0 -0 -0 -0 -0 -0 0 0 0 -0 -0 -0 -0 -0 -0 -0 -0 -0 -0 -0 -0 -0 -0 -0 -0 -0 -0 -0 0 0 0 0 0 -0 0 0 0 -0 -0 0 0 0 0
-0 -0 -0 -0 0 0 0 0 0 -0 -0 -0 -0 -0 -0 -0 -0 -0 -0 -0 -0 -0 -0 -0 -0 -0 -0 -0 -0 0 0 -0 -0 -0 -0 0 -0 0 0 0 0 0 0
-0 -0 -0 -0 0 0 0 0 0 0 -0 -0 -0 -0 -0 -0 -0 -0 -0 -0 -0 -0 -0 -0 -0 -0 -0 -0 -0 0 -0 -0 -0 -0 -0 -0 -0 -0 0 0 0 0 0
-0 -0 -0 -0 0 0 0 0 0 -0 -0 -0 -0 -0 -0 -0 -0 -0 -0 -0 -0 -0 -0 -0 -0 -0 -0 -0 -0 0 0 -0 -0 -0 -0 -0 -0 -0 0 0 0 0 0
-0 -0 -0 -0 0 0 0 0 0 0 -0 -0 -0 -0 -0 -0 -0 -0 -0 -0 -0 -0 -0 -0 -0 -0 -0 -0 0 -0 -0 -0 -0 0 -0 0 -0 0 0 0 0 0 0
-0 -0 -0 -0 0 0 -0 -0 -0 0 -0 -0 -0 -0 -0 -0 -0 -0 -0 -0 -0 -0 -0 -0 -0 -0 0 0 0 0 -0 -0 -0 -0 0 0 0 0 0 0 0 0 0
-0 0 -0 -0 0 0 -0 -0 -0 0 0 0 -0 0 -0 -0 -0 -0 -0 -0 0 0 0 0 0 0 0 0 0 0 -0 -0 -0 -0 0 0 0 0 0 0 0 0 0
-0 0 0 0 0 0 0 0 0 0 0 0 0 0 -0 -0 -0 -0 0 0 0 0 0 0 0 0 0 0 0 -0 -0 0 0 -0 0 0 0 0 0 0 0 0 0
-0 0 0 0 0 0 0 0 0 0 0 0 0 0 0 -0 -0 -0 -0 -0 0 0 0 0 0 0 0 0 -0 -0 -0 -0 -0 -0 0 0 0 0 0 0 0 0 0
0 0 0 0 0 0 0 0 0 0 0 0 0 0 0 -0 -0 0 0 0 0 0 0 0 0 0 -0 -0 -0 -0 0 -0 -0 -0 0 0 0 0 0 0 0 0 0
0 0 0 0 0 0 0 0 0 0 0 0 0 0 0 0 0 0 0 0 0 0 0 0 0 0 -0 -0 -0 -0 -0 -0 -0 0 0 0 0 0 0 0 0 0 0
0 0 0 0 0 0 0 0 0 0 0 0 0 0 0 0 0 0 0 0 0 0 0 0 0 0 -0 0 0 -0 0 -0 0 -0 0 0 0 0 0 0 0 0 0
0 0 0 0 0 0 0 0 0 0 0 0 0 0 0 0 0 0 0 0 0 0 0 0 0 0 0 0 0 0 0 0 0 -0 -0 0 0 0 0 0 0 0 0
0 0 0 0 0 0 0 0 0 0 0 0 0 0 0 0 0 0 0 0 0 0 0 0 0 0 0 0 0 0 0 0 0 0 0 0 0 0 0 0 0 0 0
0 0 0 0 0 0 0 0 0 0 0 0 0 0 0 0 0 0 0 0 0 0 0 0 0 0 0 0 0 0 0 0 0 0 0 0 0 0 0 0 0 0 0
0 0 0 0 0 0 0 0 0 0 0 0 0 0 0 0 0 0 0 0 0 0 0 0 0 0 0 0 0 0 0 0 0 0 0 0 0 0 0 0 0 0 0
0 0 0 0 0 0 0 0 0 0 0 0 0 0 0 0 0 0 0 0 0 0 0 0 0 0 0 0 0 0 0 0 0 0 0 0 0 0 0 0 0 0 0
0 0 0 0 0 0 0 0 0 0 0 0 0 0 0 0 0 0 0 0 0 0 0 0 0 0 0 0 0 0 0 0 0 0 0 0 0 0 0 0 0 0 0
0 0 0 0 0 0 0 0 0 0 0 0 0 0 0 0 0 0 0 0 0 0 0 0 0 0 0 0 0 0 0 0 0 0 0 0 0 0 0 0 0 0 0
0 0 0 0 0 0 0 0 0 0 0 0 0 0 0 0 0 0 0 0 0 0 0 0 0 0 0 0 0 0 0 0 0 0 0 0 0 0 0 0 0 0 0
0 0 0 0 0 0 0 0 0 0 0 0 0 0 0 0 0 0 0 0 0 0 0 0 0 0 0 0 0 0 0 0 0 0 0 0 0 0 0 0 0 0 0
0 0 0 0 0 0 0 0 0 0 0 0 0 0 0 0 0 0 0 0 0 0 0 0 0 0 0 0 0 0 0 0 0 0 0 0 0 0 0 0 0 0 0
0 0 0 0 0 0 0 0 0 0 0 0 0 0 0 0 0 0 0 0 0 0 0 0 0 0 0 0 0 0 0 0 0 0 0 0 0 0 0 0 0 0 0
0 0 0 0 0 0 0 0 0 0 0 0 0 0 0 0 0 0 0 0 0 0 0 0 0 0 0 0 0 0 0 0 0 0 0 0 0 0 0 0 0 0 0
0 0 0 0 0 0 0 0 0 0 0 0 0 0 0 0 0 0 0 0 0 0 0 0 0 0 0 0 0 0 0 0 0 0 0 0 0 0 0 0 0 0 0
0 0 0 0 0 0 0 0 0 0 0 0 0 0 0 0 0 0 0 0 0 0 0 0 0 0 0 0 0 0 0 0 0 0 0 0 0 0 0 0 0 0 0
Wind_Speed_500mb
40 35 35 36 33 35 34 32 37 46 45 38 33 26 20 18 14 12 11 13 18 23 23 25 28 28 31 33 32 35 37 37 40 33 22 24 29 26 27 28 27 26 21
37 38 38 36 35 38 37 39 43 44 40 31 27 24 19 16 11 9 10 14 20 24 23 25 27 29 30 32 33 33 34 35 36 36 34 22 21 21 23 27 29 28 24
29 44 41 36 36 40 40 45 43 40 35 32 27 23 19 11 8 7 11 15 19 23 24 25 26 27 28 29 30 33 35 36 29 27 29 23 18 18 18 20 23 23 23
30 44 42 37 39 42 43 49 44 36 37 34 29 21 16 11 7 8 13 16 19 22 23 23 24 25 25 27 27 27 27 28 27 21 22 21 18 17 17 18 18 19 19
38 44 42 40 43 44 44 50 45 39 35 30 22 19 16 10 6 9 14 14 16 21 24 23 23 23 22 23 23 23 21 22 24 15 10 18 17 15 14 15 16 17 17
41 45 43 43 42 42 44 48 44 37 36 28 23 19 14 8 6 10 13 13 15 18 19 19 20 19 18 18 18 18 16 14 15 15 8 12 14 14 14 14 13 13 13
40 46 45 45 42 39 41 43 38 39 35 28 21 16 11 8 6 8 16 15 13 15 15 16 16 15 14 14 14 13 12 10 9 10 10 11 13 14 13 13 11 11 11
32 48 47 46 44 40 40 42 39 38 31 25 21 18 14 12 10 11 14 15 13 13 12 11 11 10 9 9 10 10 8 5 5 10 10 12 13 15 15 14 14 14 13
29 40 49 47 47 44 42 41 37 31 26 21 21 20 18 17 15 13 13 14 16 13 11 8 7 6 6 6 6 6 5 5 6 8 10 11 13 15 15 15 15 15 14
34 32 49 48 49 48 45 42 37 31 28 25 23 23 22 21 20 17 16 15 15 13 10 8 6 4 3 2 2 3 2 2 4 5 8 10 13 16 15 15 16 16 16
41 36 47 51 50 50 47 45 41 35 32 30 28 26 25 23 19 14 16 18 16 13 9 6 5 5 4 5 3 1 1 1 4 7 10 11 11 13 14 15 15 15 16
51 42 46 52 51 50 48 45 42 38 33 29 28 26 24 21 17 19 18 17 14 12 9 9 7 6 6 3 2 3 3 4 8 9 10 11 13 15 16 17 17 18 18
52 41 42 51 50 50 50 45 42 38 33 28 25 24 23 23 21 16 15 12 12 13 13 11 9 7 5 5 7 8 8 9 9 11 11 12 15 17 19 20 21 20 20
56 46 43 41 45 44 45 44 43 41 36 31 25 24 27 27 25 24 19 16 15 15 15 12 13 10 6 7 9 10 10 11 11 12 14 15 17 18 19 21 22 21 21
62 56 53 47 52 41 41 39 43 48 44 34 27 22 27 33 32 29 25 24 19 18 16 13 12 10 9 11 11 9 10 12 13 15 16 15 16 14 16 18 20 21 22
65 62 61 55 56 53 53 51 44 42 38 34 32 26 26 29 32 29 27 23 20 17 15 14 15 15 14 14 12 12 13 12 11 10 13 15 14 12 11 14 17 19 20
70 64 65 61 58 61 60 57 53 47 44 38 36 31 27 30 29 26 25 24 21 20 19 20 19 18 19 18 16 15 15 15 15 15 15 14 12 4 11 14 14 17 21
68 71 69 64 62 70 64 62 57 53 49 44 44 41 31 31 30 27 28 26 23 22 21 20 20 22 20 18 18 17 21 21 19 22 20 15 11 8 13 17 19 22 27
74 69 69 66 61 78 70 64 60 55 53 49 47 48 39 35 35 33 31 27 25 25 25 23 22 23 22 22 23 24 26 19 23 23 18 12 10 9 12 22 23 29 26
69 68 68 69 64 69 80 70 63 61 58 53 52 52 46 41 40 40 36 32 31 31 30 29 27 25 25 22 24 29 28 21 20 20 13 9 7 22 22 24 29 34 31
71 70 72 74 72 65 77 87 79 75 67 62 58 58 51 44 41 41 40 38 37 35 33 27 24 22 23 23 29 28 33 23 16 12 13 3 16 20 25 24 39 27 36
66 77 76 77 76 72 71 79 81 78 76 69 62 57 53 48 43 42 42 43 40 36 28 29 26 29 29 28 29 29 21 25 11 6 5 12 23 21 22 35 30 33 30
70 78 78 81 80 76 70 70 70 67 67 77 74 67 64 54 48 45 42 39 35 29 30 32 33 33 31 29 28 23 12 8 14 12 17 19 17 21 29 33 32 36 33
79 70 70 78 82 78 71 72 74 78 78 79 82 74 66 60 52 51 45 40 31 34 37 37 36 35 34 32 35 35 36 37 25 13 26 27 24 24 26 35 36 32 38
79 78 78 77 82 80 76 74 71 73 73 69 72 73 66 60 55 55 47 42 42 43 41 39 38 37 38 41 44 46 48 38 35 26 15 15 29 34 41 44 42 36 25
48 75 75 84 81 81 80 77 74 70 69 69 73 64 60 55 58 56 48 54 53 50 47 46 47 49 50 51 42 34 32 14 6 9 25 32 41 47 48 37 22 25 28
Wind_Direction_500mb
181 182 175 171 168 164 158 148 139 144 139 137 137 132 119 108 91 75 74 84 101 102 101 101 97 95 87 86 91 95 96 90 86 83 88 108 95 90 78 77 84 87 87
167 179 172 170 168 166 161 152 144 146 146 148 142 132 122 104 79 74 89 103 105 104 105 98 95 94 92 91 94 100 94 86 77 76 76 91 94 88 76 72 74 79 80
176 172 169 170 169 168 161 156 151 150 155 156 149 139 123 105 83 85 111 113 105 103 105 102 99 96 96 97 98 98 95 84 73 75 75 77 78 78 73 70 71 76 77
182 173 168 168 165 163 161 160 157 148 153 154 151 146 134 119 93 114 130 126 113 107 110 109 105 102 100 100 103 106 104 106 104 74 73 77 71 69 66 65 66 65 65
178 174 167 164 160 160 161 164 164 161 161 166 164 163 152 138 116 142 145 132 122 115 113 106 110 106 101 100 102 104 101 98 100 108 63 62 58 56 58 55 50 49 48
175 173 169 164 162 161 164 165 165 167 169 166 162 156 157 153 141 161 164 148 130 122 120 118 110 109 107 106 103 104 101 91 91 94 72 50 48 39 37 40 40 37 36
173 172 170 168 167 165 168 167 169 167 170 174 178 175 185 196 187 170 173 169 143 132 129 124 120 117 115 109 103 98 94 90 84 75 40 39 33 24 18 14 15 16 15
177 174 174 172 172 171 171 172 169 173 180 185 189 200 211 222 212 183 160 162 162 154 146 135 129 125 119 109 101 92 82 70 46 48 32 26 19 6 358 355 354 353 352
185 179 178 176 175 178 178 177 181 186 192 205 198 212 219 220 225 215 186 167 175 170 159 150 142 135 125 116 105 92 73 38 27 29 27 15 5 359 349 343 339 337 338
192 190 187 182 180 182 183 184 191 196 204 215 222 225 228 224 219 215 200 187 191 187 184 179 169 163 158 153 135 97 84 47 16 6 6 358 357 352 342 335 331 331 331
198 203 198 190 187 187 190 194 200 205 213 223 226 222 218 217 222 228 213 204 201 203 210 210 203 204 208 206 209 167 111 29 339 338 344 349 343 343 340 338 335 333 331
199 203 202 195 193 193 197 202 205 208 215 219 220 214 205 204 210 213 208 205 210 211 225 234 230 226 227 245 278 320 341 326 322 324 327 341 334 330 330 328 327 330 328
203 207 195 198 195 198 200 202 206 208 210 211 212 210 204 206 208 225 213 219 221 227 234 233 239 248 265 299 328 323 316 313 316 310 324 329 323 320 319 322 323 322 320
204 207 200 201 199 198 203 205 209 208 208 212 213 212 202 200 215 237 237 243 236 230 233 230 231 237 265 305 292 289 300 308 315 315 315 319 315 314 316 317 316 317 318
203 206 204 203 193 195 200 215 214 213 213 213 210 213 206 207 219 233 245 230 229 226 232 241 253 262 268 266 276 287 296 308 315 317 317 316 322 329 332 326 322 322 322
205 209 205 207 196 197 205 208 206 206 206 208 212 223 226 221 227 227 229 234 240 243 244 247 252 259 266 272 271 273 280 285 288 295 306 319 326 341 356 354 351 344 336
208 211 211 210 208 200 205 210 209 211 212 211 217 229 233 226 220 219 225 230 235 243 248 256 258 262 269 271 273 270 273 278 286 297 306 311 314 336 6 358 349 341 330
207 214 213 212 214 206 204 207 209 213 213 213 216 228 232 233 228 225 228 230 233 239 245 251 261 265 265 269 274 284 284 285 297 300 295 301 321 305 342 338 329 327 324
209 218 216 217 214 211 208 210 207 208 213 215 219 225 236 232 229 230 232 234 238 241 247 251 253 257 262 264 270 278 285 287 291 286 273 288 316 359 323 327 332 326 327
208 216 224 223 218 213 213 212 215 209 213 213 219 229 238 235 228 228 231 232 237 241 242 245 247 247 256 269 282 287 292 295 286 276 270 294 242 325 321 330 331 323 325
207 213 225 226 225 218 214 215 217 212 210 212 216 227 233 236 236 234 234 236 236 242 243 247 255 253 262 269 279 290 301 305 305 237 235 237 319 304 326 314 323 318 311
212 209 218 226 231 228 226 223 221 221 216 214 217 228 235 235 237 238 237 237 239 243 248 245 248 253 257 262 272 291 302 317 354 220 247 256 320 285 293 303 307 306 307
214 210 218 224 227 229 231 229 219 220 221 219 216 219 227 234 238 241 240 238 237 234 249 253 261 262 261 255 257 258 281 252 284 254 220 278 245 279 278 301 312 317 310
221 219 221 223 226 228 228 229 222 222 221 225 219 221 226 230 231 237 240 239 238 238 243 252 249 245 247 250 255 260 264 264 276 261 249 252 274 284 298 313 313 310 307
233 228 219 220 224 228 230 230 231 227 228 226 224 225 228 226 232 234 237 229 233 238 241 240 241 242 248 253 254 260 271 262 263 254 300 282 295 298 310 315 307 304 304
255 238 233 219 221 228 231 233 233 235 224 225 222 222 223 220 227 236 228 231 233 234 234 236 240 245 250 257 261 260 259 231 260 257 288 296 297 299 304 305 301 303 305
Wind_Speed_850mb
40 35 35 36 33 35 34 32 37 46 45 38 33 26 20 18 14 12 11 13 18 23 23 25 28 28 31 33 32 35 37 37 40 33 22 24 29 26 27 28 27 26 21
37 38 38 36 35 38 37 39 43 44 40 31 27 24 19 16 11 9 10 14 20 24 23 25 27 29 30 32 33 33 34 35 36 36 34 22 21 21 23 27 29 28 24
29 44 41 36 36 40 40 45 43 40 35 32 27 23 19 11 8 7 11 15 19 23 24 25 26 27 28 29 30 33 35 36 29 27 29 23 18 18 18 20 23 23 23
30 44 42 37 39 42 43 49 44 36 37 34 29 21 16 11 7 8 13 16 19 22 23 23 24 25 25 27 27 27 27 28 27 21 22 21 18 17 17 18 18 19 19
38 44 42 40 43 44 44 50 45 39 35 30 22 19 16 10 6 9 14 14 16 21 24 23 23 23 22 23 23 23 21 22 24 15 10 18 17 15 14 15 16 17 17
41 45 43 43 42 42 44 48 44 37 36 28 23 19 14 8 6 10 13 13 15 18 19 19 20 19 18 18 18 18 16 14 15 15 8 12 14 14 14 14 13 13 13
40 46 45 45 42 39 41 43 38 39 35 28 21 16 11 8 6 8 16 15 13 15 15 16 16 15 14 14 14 13 12 10 9 10 10 11 13 14 13 13 11 11 11
32 48 47 46 44 40 40 42 39 38 31 25 21 18 14 12 10 11 14 15 13 13 12 11 11 10 9 9 10 10 8 5 5 10 10 12 13 15 15 14 14 14 13
29 40 49 47 47 44 42 41 37 31 26 21 21 20 18 17 15 13 13 14 16 13 11 8 7 6 6 6 6 6 5 5 6 8 10 11 13 15 15 15 15 15 14
34 32 49 48 49 48 45 42 37 31 28 25 23 23 22 21 20 17 16 15 15 13 10 8 6 4 3 2 2 3 2 2 4 5 8 10 13 16 15 15 16 16 16
41 36 47 51 50 50 47 45 41 35 32 30 28 26 25 23 19 14 16 18 16 13 9 6 5 5 4 5 3 1 1 1 4 7 10 11 11 13 14 15 15 15 16
51 42 46 52 51 50 48 45 42 38 33 29 28 26 24 21 17 19 18 17 14 12 9 9 7 6 6 3 2 3 3 4 8 9 10 11 13 15 16 17 17 18 18
52 41 42 51 50 50 50 45 42 38 33 28 25 24 23 23 21 16 15 12 12 13 13 11 9 7 5 5 7 8 8 9 9 11 11 12 15 17 19 20 21 20 20
56 46 43 41 45 44 45 44 43 41 36 31 25 24 27 27 25 24 19 16 15 15 15 12 13 10 6 7 9 10 10 11 11 12 14 15 17 18 19 21 22 21 21
62 56 53 47 52 41 41 39 43 48 44 34 27 22 27 33 32 29 25 24 19 18 16 13 12 10 9 11 11 9 10 12 13 15 16 15 16 14 16 18 20 21 22
65 62 61 55 56 53 53 51 44 42 38 34 32 26 26 29 32 29 27 23 20 17 15 14 15 15 14 14 12 12 13 12 11 10 13 15 14 12 11 14 17 19 20
70 64 65 61 58 61 60 57 53 47 44 38 36 31 27 30 29 26 25 24 21 20 19 20 19 18 19 18 16 15 15 15 15 15 15 14 12 4 11 14 14 17 21
68 71 69 64 62 70 64 62 57 53 49 44 44 41 31 31 30 27 28 26 23 22 21 20 20 22 20 18 18 17 21 21 19 22 20 15 11 8 13 17 19 22 27
74 69 69 66 61 78 70 64 60 55 53 49 47 48 39 35 35 33 31 27 25 25 25 23 22 23 22 22 23 24 26 19 23 23 18 12 10 9 12 22 23 29 26
69 68 68 69 64 69 80 70 63 61 58 53 52 52 46 41 40 40 36 32 31 31 30 29 27 25 25 22 24 29 28 21 20 20 13 9 7 22 22 24 29 34 31
71 70 72 74 72 65 77 87 79 75 67 62 58 58 51 44 41 41 40 38 37 35 33 27 24 22 23 23 29 28 33 23 16 12 13 3 16 20 25 24 39 27 36
66 77 76 77 76 72 71 79 81 78 76 69 62 57 53 48 43 42 42 43 40 36 28 29 26 29 29 28 29 29 21 25 11 6 5 12 23 21 22 35 30 33 30
70 78 78 81 80 76 70 70 70 67 67 77 74 67 64 54 48 45 42 39 35 29 30 32 33 33 31 29 28 23 12 8 14 12 17 19 17 21 29 33 32 36 33
79 70 70 78 82 78 71 72 74 78 78 79 82 74 66 60 52 51 45 40 31 34 37 37 36 35 34 32 35 35 36 37 25 13 26 27 24 24 26 35 36 32 38
79 78 78 77 82 80 76 74 71 73 73 69 72 73 66 60 55 55 47 42 42 43 41 39 38 37 38 41 44 46 48 38 35 26 15 15 29 34 41 44 42 36 25
48 75 75 84 81 81 80 77 74 70 69 69 73 64 60 55 58 56 48 54 53 50 47 46 47 49 50 51 42 34 32 14 6 9 25 32 41 47 48 37 22 25 28
Wind_Direction_850mb
181 182 175 171 168 164 158 148 139 144 139 137 137 132 119 108 91 75 74 84 101 102 101 101 97 95 87 86 91 95 96 90 86 83 88 108 95 90 78 77 84 87 87
167 179 172 170 168 166 161 152 144 146 146 148 142 132 122 104 79 74 89 103 105 104 105 98 95 94 92 91 94 100 94 86 77 76 76 91 94 88 76 72 74 79 80
176 172 169 170 169 168 161 156 151 150 155 156 149 139 123 105 83 85 111 113 105 103 105 102 99 96 96 97 98 98 95 84 73 75 75 77 78 78 73 70 71 76 77
182 173 168 168 165 163 161 160 157 148 153 154 151 146 134 119 93 114 130 126 113 107 110 109 105 102 100 100 103 106 104 106 104 74 73 77 71 69 66 65 66 65 65
178 174 167 164 160 160 161 164 164 161 161 166 164 163 152 138 116 142 145 132 122 115 113 106 110 106 101 100 102 104 101 98 100 108 63 62 58 56 58 55 50 49 48
175 173 169 164 162 161 164 165 165 167 169 166 162 156 157 153 141 161 164 148 130 122 120 118 110 109 107 106 103 104 101 91 91 94 72 50 48 39 37 40 40 37 36
173 172 170 168 167 165 168 167 169 167 170 174 178 175 185 196 187 170 173 169 143 132 129 124 120 117 115 109 103 98 94 90 84 75 40 39 33 24 18 14 15 16 15
177 174 174 172 172 171 171 172 169 173 180 185 189 200 211 222 212 183 160 162 162 154 146 135 129 125 119 109 101 92 82 70 46 48 32 26 19 6 358 355 354 353 352
185 179 178 176 175 178 178 177 181 186 192 205 198 212 219 220 225 215 186 167 175 170 159 150 142 135 125 116 105 92 73 38 27 29 27 15 5 359 349 343 339 337 338
192 190 187 182 180 182 183 184 191 196 204 215 222 225 228 224 219 215 200 187 191 187 184 179 169 163 158 153 135 97 84 47 16 6 6 358 357 352 342 335 331 331 331
198 203 198 190 187 187 190 194 200 205 213 223 226 222 218 217 222 228 213 204 201 203 210 210 203 204 208 206 209 167 111 29 339 338 344 349 343 343 340 338 335 333 331
199 203 202 195 193 193 197 202 205 208 215 219 220 214 205 204 210 213 208 205 210 211 225 234 230 226 227 245 278 320 341 326 322 324 327 341 334 330 330 328 327 330 328
203 207 195 198 195 198 200 202 206 208 210 211 212 210 204 206 208 225 213 219 221 227 234 233 239 248 265 299 328 323 316 313 316 310 324 329 323 320 319 322 323 322 320
204 207 200 201 199 198 203 205 209 208 208 212 213 212 202 200 215 237 237 243 236 230 233 230 231 237 265 305 292 289 300 308 315 315 315 319 315 314 316 317 316 317 318
203 206 204 203 193 195 200 215 214 213 213 213 210 213 206 207 219 233 245 230 229 226 232 241 253 262 268 266 276 287 296 308 315 317 317 316 322 329 332 326 322 322 322
205 209 205 207 196 197 205 208 206 206 206 208 212 223 226 221 227 227 229 234 240 243 244 247 252 259 266 272 271 273 280 285 288 295 306 319 326 341 356 354 351 344 336
208 211 211 210 208 200 205 210 209 211 212 211 217 229 233 226 220 219 225 230 235 243 248 256 258 262 269 271 273 270 273 278 286 297 306 311 314 336 6 358 349 341 330
207 214 213 212 214 206 204 207 209 213 213 213 216 228 232 233 228 225 228 230 233 239 245 251 261 265 265 269 274 284 284 285 297 300 295 301 321 305 342 338 329 327 324
209 218 216 217 214 211 208 210 207 208 213 215 219 225 236 232 229 230 232 234 238 241 247 251 253 257 262 264 270 278 285 287 291 286 273 288 316 359 323 327 332 326 327
208 216 224 223 218 213 213 212 215 209 213 213 219 229 238 235 228 228 231 232 237 241 242 245 247 247 256 269 282 287 292 295 286 276 270 294 242 325 321 330 331 323 325
207 213 225 226 225 218 214 215 217 212 210 212 216 227 233 236 236 234 234 236 236 242 243 247 255 253 262 269 279 290 301 305 305 237 235 237 319 304 326 314 323 318 311
212 209 218 226 231 228 226 223 221 221 216 214 217 228 235 235 237 238 237 237 239 243 248 245 248 253 257 262 272 291 302 317 354 220 247 256 320 285 293 303 307 306 307
214 210 218 224 227 229 231 229 219 220 221 219 216 219 227 234 238 241 240 238 237 234 249 253 261 262 261 255 257 258 281 252 284 254 220 278 245 279 278 301 312 317 310
221 219 221 223 226 228 228 229 222 222 221 225 219 221 226 230 231 237 240 239 238 238 243 252 249 245 247 250 255 260 264 264 276 261 249 252 274 284 298 313 313 310 307
233 228 219 220 224 228 230 230 231 227 228 226 224 225 228 226 232 234 237 229 233 238 241 240 241 242 248 253 254 260 271 262 263 254 300 282 295 298 310 315 307 304 304
255 238 233 219 221 228 231 233 233 235 224 225 222 222 223 220 227 236 228 231 233 234 234 236 240 245 250 257 261 260 259 231 260 257 288 296 297 299 304 305 301 303 305